This demonstration page uses our WeatherBlox Daily Observations layout. Learn more.

Left ArrowRight Arrow

Hourly Observations for February 17, 2020

Temp ( °F °C ) Dew Point ( °F °C ) Humidity (%) Winds ( mph kmh ) Pressure ( in mb ) Visibility ( mi km ) Precip ( " mm )
12:53 am 00:53 Clear 26 -3.3 24 -4.4 92 92 N N/A 30.17 1022 8 13 N/A
1:53 am 01:53 Clear 23 -5 21 -6.1 92 92 N N/A 30.18 1022 7 11 N/A
2:53 am 02:53 Clear with Mist and Fog 25 -3.9 24 -4.4 96 96 N N/A 30.17 1022 6 10 N/A
3:53 am 03:53 Clear with Mist and Fog 23 -5 21 -6.1 92 92 N N/A 30.17 1022 6 10 N/A
4:53 am 04:53 Clear with Mist and Fog 23 -5 21 -6.1 92 92 N N/A 30.19 1022 5 8 N/A
5:53 am 05:53 Clear with Mist and Fog 22 -5.6 21 -6.1 96 96 N N/A 30.18 1022 6 10 N/A
6:53 am 06:53 Clear with Mist and Fog 24 -4.4 23 -5 96 96 N N/A 30.19 1022 5 8 N/A
7:53 am 07:53 Mostly Cloudy with Mist and Fog 25 -3.9 23 -5 92 92 N N/A 30.22 1023 4 6 N/A
8:53 am 08:53 Mostly Cloudy with Mist and Fog 32 undefined 28 -2.2 85 85 ENE 5 7 30.23 1024 6 10 N/A
9:53 am 09:53 Sunny 36 2.2 31 -0.6 82 82 E 6 9 30.21 1023 8 13 N/A
10:53 am 10:53 Sunny 41 5 29 -1.7 62 62 ESE 6 9 30.19 1022 10 16 N/A
11:53 am 11:53 Mostly Sunny 46 7.8 30 -1.1 54 54 VRB 6 9 30.17 1022 10 16 N/A
12:53 pm 12:53 Mostly Sunny 47 8.3 31 -0.6 54 54 ESE 9 15 30.14 1021 10 16 N/A
1:53 pm 13:53 Partly Cloudy 49 9.4 31 -0.6 50 50 ESE 9 15 30.09 1019 10 16 N/A
2:53 pm 14:53 Cloudy 49 9.4 32 undefined 52 52 ESE 6 9 30.07 1018 10 16 N/A
3:53 pm 15:53 Cloudy 50 10 33 0.6 52 52 E 7 11 30.05 1018 10 16 N/A
4:53 pm 16:53 Cloudy 50 10 33 0.6 52 52 ESE 5 7 30.04 1017 10 16 N/A
5:53 pm 17:53 Cloudy 47 8.3 35 1.7 63 63 E 6 9 30.02 1017 10 16 N/A
6:53 pm 18:53 Cloudy 46 7.8 34 1.1 63 63 E 7 11 30.00 1016 10 16 N/A
7:53 pm 19:53 Cloudy 47 8.3 33 0.6 59 59 ESE 6 9 29.99 1016 10 16 N/A
8:53 pm 20:53 Cloudy 47 8.3 34 1.1 61 61 ESE 5 7 29.96 1014 10 16 N/A
9:53 pm 21:53 Mostly Clear 45 7.2 34 1.1 66 66 E 3 6 29.93 1014 10 16 0.00 0.00
10:53 pm 22:53 Mostly Cloudy 46 7.8 35 1.7 66 66 N N/A 29.91 1013 10 16 N/A
11:53 pm 23:53 Mostly Cloudy 50 10 35 1.7 57 57 VRB 6 9 29.90 1012 10 16 N/A

Powered by AerisWeather